User: anonymous   Login
Location: Asheville, NC
(35.6000°N, 82.5500°W)
Time: 08:55:57
(UTC-05:00)
Language:

FO-29 - Orbit

View from above orbital plane
View from above orbital plane
View from above satellite
View from above satellite

Ground track
Ground track

The orbit data is extracted from the following two-line orbital elements,

1 24278U 96046B   18018.19634317  .00000001  00000-0  33958-4 0  9993
2 24278  98.5308 237.4968 0351057 139.9144 222.8474 13.53080543 57956
Epoch (UTC): 18 January 2018 04:42:44
Eccentricity: 0.0351057
inclination: 98.5308°
perigee height: 800 km
apogee height: 1322 km
right ascension of ascending node: 237.4968°
argument of perigee: 139.9144°
revolutions per day: 13.53080543
mean anomaly at epoch: 222.8474°
orbit number at epoch: 5795

The dashed part of the orbit path shows where the satellite is in the earth's shadow,  

DLR